| time (UTC) | temp C | wind direction | speed KPH | gust KPH | rain 1hr cm | rain 24hr cm | rain mn cm | humidity % | barometer mb |
| 20260505173011 | 12 | 315 | 9.7 | 14.5 | 0.00 | 1.02 | 1.02 | 99 | 1011.1 |
| 20260505172050 | 12 | 337 | 9.7 | 17.7 | 0.00 | 1.02 | 1.02 | 98 | 1011.1 |
| 20260505171006 | 12 | 292 | 4.8 | 9.7 | 0.00 | 1.02 | 1.02 | 98 | 1011.2 |
| 20260505170458 | 12 | 315 | 3.2 | 9.7 | 0.03 | 1.02 | 1.02 | 99 | 1010.9 |
| 20260505165456 | 12 | 315 | 4.8 | 6.4 | 0.03 | 1.02 | 1.02 | 98 | 1011.1 |
| 20260505164452 | 12 | 292 | 4.8 | 9.7 | 0.03 | 1.02 | 1.02 | 98 | 1011.2 |
| 20260505163448 | 12 | 292 | 8.0 | 14.5 | 0.05 | 1.02 | 1.02 | 98 | 1011.2 |
| 20260505162446 | 12 | 315 | 4.8 | 9.7 | 0.05 | 1.02 | 1.02 | 98 | 1011.2 |
| 20260505161501 | 12 | 135 | 3.2 | 9.7 | 0.05 | 1.02 | 1.02 | 98 | 1011.0 |
| 20260505160437 | 12 | 292 | 6.4 | 9.7 | 0.03 | 0.97 | 0.97 | 98 | 1011.2 |
| 20260505152417 | 13 | 45 | 6.4 | 9.7 | 0.00 | 0.94 | 0.94 | 98 | 1011.4 |
| 20260505151414 | 12 | 90 | 3.2 | 6.4 | 0.00 | 0.94 | 0.94 | 98 | 1011.4 |
| 20260505150410 | 12 | 315 | 3.2 | 6.4 | 0.03 | 0.94 | 0.94 | 98 | 1011.4 |
| 20260505140335 | 13 | 337 | 1.6 | 4.8 | 0.00 | 0.91 | 0.91 | 95 | 1011.6 |
| 20260505130254 | 13 | 315 | 1.6 | 4.8 | 0.00 | 0.91 | 0.91 | 94 | 1011.9 |
| 20260505124302 | 13 | 315 | 4.8 | 9.7 | 0.00 | 0.91 | 0.91 | 94 | 1011.6 |
| 20260505123236 | 12 | 315 | 3.2 | 4.8 | 0.03 | 0.91 | 0.91 | 94 | 1011.8 |
| 20260505122233 | 12 | 315 | 1.6 | 4.8 | 0.03 | 0.91 | 0.91 | 94 | 1011.8 |
| 20260505121230 | 12 | 315 | 4.8 | 9.7 | 0.05 | 0.91 | 0.91 | 95 | 1011.9 |
| 20260505120220 | 12 | 315 | 4.8 | 4.8 | 0.08 | 0.91 | 0.91 | 95 | 1011.9 |
| 20260505115237 | 12 | 315 | 4.8 | 9.7 | 0.08 | 0.91 | 0.91 | 96 | 1012.0 |
| 20260505114213 | 12 | 315 | 4.8 | 6.4 | 0.10 | 0.91 | 0.91 | 96 | 1011.9 |
| 20260505113230 | 12 | 315 | 4.8 | 4.8 | 0.10 | 0.89 | 0.89 | 95 | 1011.9 |
| 20260505112207 | 12 | 0.0 | 1.6 | 0.18 | 0.89 | 0.89 | 95 | 1012.1 | |
| 20260505111224 | 12 | 0.0 | 0.0 | 0.20 | 0.86 | 0.86 | 95 | 1012.0 | |
| 20260505110240 | 12 | 315 | 0.0 | 1.6 | 0.18 | 0.84 | 0.84 | 95 | 1012.3 |
| 20260505102134 | 12 | 315 | 1.6 | 4.8 | 0.10 | 0.71 | 0.71 | 94 | 1012.0 |
| 20260505101132 | 12 | 292 | 1.6 | 3.2 | 0.08 | 0.64 | 0.64 | 93 | 1011.9 |
| 20260505100127 | 12 | 315 | 0.0 | 1.6 | 0.08 | 0.64 | 0.64 | 92 | 1012.2 |
| 20260505095122 | 12 | 0.0 | 0.0 | 0.05 | 0.61 | 0.61 | 92 | 1012.2 | |
| 20260505094118 | 12 | 315 | 0.0 | 1.6 | 0.05 | 0.61 | 0.61 | 92 | 1012.2 |
| 20260505093109 | 12 | 315 | 1.6 | 3.2 | 0.03 | 0.58 | 0.58 | 92 | 1012.2 |
| 20260505092126 | 12 | 315 | 3.2 | 4.8 | 0.03 | 0.58 | 0.58 | 91 | 1012.2 |
| 20260505091102 | 12 | 315 | 0.0 | 3.2 | 0.00 | 0.56 | 0.56 | 91 | 1011.9 |
| 20260505090058 | 12 | 315 | 4.8 | 6.4 | 0.00 | 0.56 | 0.56 | 91 | 1012.0 |
| 20260505085056 | 12 | 315 | 3.2 | 6.4 | 0.00 | 0.56 | 0.56 | 93 | 1012.0 |
| 20260505084045 | 12 | 337 | 3.2 | 6.4 | 0.00 | 0.56 | 0.56 | 94 | 1011.8 |
| 20260505083041 | 12 | 315 | 4.8 | 6.4 | 0.03 | 0.56 | 0.56 | 95 | 1011.5 |
| 20260505082031 | 11 | 315 | 9.7 | 12.9 | 0.03 | 0.56 | 0.56 | 95 | 1011.9 |
| 20260505081025 | 12 | 315 | 6.4 | 12.9 | 0.05 | 0.56 | 0.56 | 96 | 1011.7 |
| 20260505080022 | 12 | 315 | 1.6 | 4.8 | 0.13 | 0.56 | 0.56 | 97 | 1011.8 |
| 20260505075020 | 12 | 315 | 6.4 | 9.7 | 0.13 | 0.56 | 0.56 | 97 | 1011.6 |
| 20260505074017 | 12 | 315 | 4.8 | 9.7 | 0.23 | 0.56 | 0.56 | 97 | 1011.5 |
| 20260505073032 | 12 | 315 | 8.0 | 12.9 | 0.23 | 0.53 | 0.53 | 97 | 1011.6 |
| 20260505072009 | 12 | 315 | 3.2 | 6.4 | 0.30 | 0.53 | 0.53 | 96 | 1011.8 |
| 20260505071008 | 12 | 292 | 0.0 | 4.8 | 0.36 | 0.51 | 0.51 | 96 | 1011.2 |
| 20260505070002 | 12 | 292 | 4.8 | 6.4 | 0.36 | 0.41 | 0.41 | 96 | 1011.4 |
| 20260505064958 | 12 | 292 | 0.0 | 3.2 | 0.30 | 0.36 | 0.36 | 95 | 1011.5 |
| 20260505063955 | 12 | 0.0 | 0.0 | 0.30 | 0.30 | 0.30 | 95 | 1011.7 | |
| 20260505062946 | 12 | 0.0 | 0.0 | 0.23 | 0.23 | 0.23 | 94 | 1011.5 | |
| 20260505061944 | 12 | 0.0 | 1.6 | 0.18 | 0.18 | 0.18 | 93 | 1011.9 | |
| 20260505060934 | 12 | 0.0 | 0.0 | 0.10 | 0.10 | 0.10 | 91 | 1011.7 | |
| 20260505055932 | 12 | 292 | 0.0 | 1.6 | 0.05 | 0.05 | 0.05 | 89 | 1011.6 |
| 20260505054924 | 13 | 292 | 0.0 | 1.6 | 0.03 | 0.03 | 0.03 | 86 | 1011.5 |
| 20260505053921 | 13 | 292 | 0.0 | 1.6 | 0.00 | 0.00 | 0.00 | 82 | 1011.5 |
| 20260505052919 | 13 | 315 | 0.0 | 1.6 | 0.00 | 0.00 | 0.00 | 78 | 1011.1 |
| 20260505051909 | 14 | 0.0 | 1.6 | 0.00 | 0.00 | 0.00 | 75 | 1011.1 | |
| 20260505050906 | 15 | 0.0 | 1.6 | 0.00 | 0.00 | 0.00 | 73 | 1011.0 | |
| 20260505040838 | 14 | 0.0 | 0.0 | 0.00 | 0.00 | 0.00 | 74 | 1011.1 | |
| 20260505035855 | 14 | 0.0 | 0.0 | 0.00 | 0.00 | 0.00 | 74 | 1010.9 | |
| 20260505034851 | 14 | 0.0 | 0.0 | 0.00 | 0.00 | 0.00 | 73 | 1010.9 | |
| 20260505033842 | 15 | 0.0 | 0.0 | 0.00 | 0.00 | 0.00 | 71 | 1011.1 | |
| 20260505032817 | 15 | 0.0 | 0.0 | 0.00 | 0.00 | 0.00 | 71 | 1011.2 | |
| 20260505031814 | 15 | 0.0 | 0.0 | 0.00 | 0.00 | 0.00 | 70 | 1011.2 | |
| 20260505030810 | 15 | 112 | 0.0 | 1.6 | 0.00 | 0.00 | 0.00 | 70 | 1011.6 |
| 20260505025806 | 15 | 0.0 | 0.0 | 0.00 | 0.00 | 0.00 | 70 | 1011.4 | |
| 20260505024756 | 15 | 0.0 | 0.0 | 0.00 | 0.00 | 0.00 | 71 | 1011.6 | |
| 20260505023753 | 15 | 0.0 | 0.0 | 0.00 | 0.00 | 0.00 | 71 | 1011.7 | |
| 20260505022749 | 15 | 0.0 | 0.0 | 0.00 | 0.00 | 0.00 | 70 | 1011.8 | |
| 20260505021746 | 15 | 0.0 | 0.0 | 0.00 | 0.00 | 0.00 | 68 | 1011.9 | |
| 20260505020742 | 15 | 0.0 | 0.0 | 0.00 | 0.00 | 0.00 | 67 | 1011.8 | |
| 20260505015734 | 15 | 292 | 0.0 | 1.6 | 0.00 | 0.00 | 0.00 | 66 | 1011.8 |
| 20260505014730 | 15 | 0.0 | 0.0 | 0.00 | 0.00 | 0.00 | 64 | 1012.1 | |
| 20260505013725 | 15 | 0.0 | 0.0 | 0.00 | 0.00 | 0.00 | 64 | 1012.3 | |
| 20260505012724 | 15 | 0.0 | 0.0 | 0.00 | 0.00 | 0.00 | 65 | 1012.4 | |
| 20260505011723 | 15 | 315 | 0.0 | 3.2 | 0.00 | 0.00 | 0.00 | 65 | 1012.6 |
| 20260505010714 | 15 | 0.0 | 1.6 | 0.00 | 0.00 | 0.00 | 65 | 1012.7 | |
| 20260505005710 | 15 | 0.0 | 0.0 | 0.00 | 0.00 | 0.00 | 65 | 1012.8 | |
| 20260505004707 | 16 | 292 | 1.6 | 3.2 | 0.00 | 0.00 | 0.00 | 66 | 1013.2 |
| 20260505003658 | 16 | 0.0 | 0.0 | 0.00 | 0.00 | 0.00 | 67 | 1013.2 | |
| 20260505002655 | 16 | 0.0 | 0.0 | 0.00 | 0.00 | 0.00 | 68 | 1013.4 | |
| 20260505001711 | 16 | 0.0 | 0.0 | 0.00 | 0.00 | 0.00 | 69 | 1013.7 | |
| 20260505000647 | 16 | 0.0 | 0.0 | 0.00 | 0.00 | 0.00 | 69 | 1013.7 | |
| 20260504235644 | 16 | 0.0 | 0.0 | 0.00 | 0.00 | 0.00 | 70 | 1013.8 | |
| 20260504234655 | 16 | 0.0 | 0.0 | 0.00 | 0.00 | 0.00 | 69 | 1014.1 | |
| 20260504233631 | 15 | 0.0 | 0.0 | 0.00 | 0.00 | 0.00 | 69 | 1014.0 | |
| 20260504232623 | 16 | 292 | 1.6 | 3.2 | 0.00 | 0.00 | 0.00 | 67 | 1014.3 |
| 20260504231638 | 16 | 0.0 | 0.0 | 0.00 | 0.00 | 0.00 | 66 | 1014.3 | |
| 20260504230613 | 16 | 0.0 | 0.0 | 0.00 | 0.00 | 0.00 | 66 | 1014.0 | |
| 20260504225610 | 16 | 0.0 | 0.0 | 0.00 | 0.00 | 0.00 | 66 | 1014.3 | |
| 20260504224606 | 16 | 0.0 | 0.0 | 0.00 | 0.00 | 0.00 | 65 | 1014.5 | |
| 20260504223557 | 16 | 0.0 | 0.0 | 0.00 | 0.00 | 0.00 | 65 | 1014.4 | |
| 20260504222614 | 16 | 0.0 | 0.0 | 0.00 | 0.00 | 0.00 | 64 | 1014.7 | |
| 20260504221544 | 16 | 0.0 | 0.0 | 0.00 | 0.00 | 0.00 | 64 | 1014.7 | |
| 20260504220554 | 16 | 0.0 | 0.0 | 0.00 | 0.00 | 0.00 | 64 | 1014.8 | |
| 20260504215530 | 17 | 0.0 | 0.0 | 0.00 | 0.00 | 0.00 | 64 | 1014.8 | |
| 20260504214524 | 17 | 0.0 | 0.0 | 0.00 | 0.00 | 0.00 | 63 | 1014.8 | |
| 20260504213521 | 17 | 0.0 | 0.0 | 0.00 | 0.00 | 0.00 | 63 | 1015.1 | |
| 20260504212517 | 17 | 0.0 | 0.0 | 0.00 | 0.00 | 0.00 | 62 | 1015.3 | |
| 20260504211042 | 16 | 0.0 | 0.0 | 0.00 | 0.00 | 0.00 | 60 | 1015.3 | |
| 20260504210037 | 17 | 0.0 | 0.0 | 0.00 | 0.00 | 0.00 | 57 | 1015.1 | |
| 20260504205036 | 17 | 315 | 0.0 | 1.6 | 0.00 | 0.00 | 0.00 | 55 | 1015.3 |
| 20260504204031 | 17 | 315 | 0.0 | 3.2 | 0.00 | 0.00 | 0.00 | 53 | 1015.3 |
| 20260504203023 | 17 | 315 | 0.0 | 3.2 | 0.00 | 0.00 | 0.00 | 51 | 1015.1 |
| 20260504202019 | 17 | 315 | 0.0 | 1.6 | 0.00 | 0.00 | 0.00 | 49 | 1014.8 |
| 20260504201013 | 17 | 315 | 1.6 | 3.2 | 0.00 | 0.00 | 0.00 | 49 | 1015.3 |
| 20260504200010 | 18 | 315 | 3.2 | 3.2 | 0.00 | 0.00 | 0.00 | 49 | 1015.1 |
| 20260504195008 | 18 | 315 | 1.6 | 3.2 | 0.00 | 0.00 | 0.00 | 51 | 1014.9 |
| 20260504194506 | 18 | 315 | 1.6 | 4.8 | 0.00 | 0.00 | 0.00 | 52 | 1015.0 |
| 20260504193459 | 18 | 315 | 1.6 | 3.2 | 0.00 | 0.00 | 0.00 | 52 | 1015.0 |
| 20260504192452 | 18 | 315 | 0.0 | 1.6 | 0.00 | 0.00 | 0.00 | 52 | 1014.9 |
| 20260504191509 | 18 | 315 | 1.6 | 3.2 | 0.00 | 0.00 | 0.00 | 51 | 1014.6 |
| 20260504190446 | 19 | 315 | 1.6 | 3.2 | 0.00 | 0.00 | 0.00 | 49 | 1014.5 |
| 20260504185457 | 19 | 315 | 1.6 | 4.8 | 0.00 | 0.00 | 0.00 | 50 | 1014.6 |
| 20260504184431 | 20 | 0.0 | 0.0 | 0.00 | 0.00 | 0.00 | 48 | 1014.3 | |
| 20260504183348 | 20 | 0.0 | 0.0 | 0.00 | 0.00 | 0.00 | 47 | 1014.4 | |
| 20260504182344 | 20 | 0.0 | 0.0 | 0.00 | 0.00 | 0.00 | 47 | 1014.4 | |
| 20260504181339 | 20 | 0.0 | 0.0 | 0.00 | 0.00 | 0.00 | 46 | 1014.3 | |
| 20260504180356 | 20 | 0.0 | 0.0 | 0.00 | 0.00 | 0.00 | 46 | 1014.5 | |
| 20260504175355 | 20 | 0.0 | 0.0 | 0.00 | 0.00 | 0.00 | 45 | 1014.4 | |
| 20260504174344 | 20 | 0.0 | 0.0 | 0.00 | 0.00 | 0.00 | 45 | 1014.4 |